Data supplied by UK-AIR on 27/11/2015
All Data GMT hour ending 
Status: R =Ratified P=Provisional,P*=As supplied
,,Swansea Roadside,,,,,,,,,,,,,,,,,,,,,,,
Date,time,"PM<sub>10</sub> particulate matter (Hourly measured)",status,unit,"Nitric oxide",status,unit,"Nitrogen dioxide",status,unit,"Nitrogen oxides as nitrogen dioxide",status,unit,"PM<sub>2.5</sub> particulate matter (Hourly measured)",status,unit
 
01-01-2012,01:00,8.000,R,ugm-3 (Ref.eq),1.00000,R,ugm-3,4.00000,R,ugm-3,6.00000,R,ugm-3,7.000,R,ugm-3 (BAM)
01-01-2012,02:00,8.000,R,ugm-3 (Ref.eq),2.00000,R,ugm-3,8.00000,R,ugm-3,11.00000,R,ugm-3,9.000,R,ugm-3 (BAM)
01-01-2012,03:00,13.000,R,ugm-3 (Ref.eq),2.00000,R,ugm-3,4.00000,R,ugm-3,8.00000,R,ugm-3,7.000,R,ugm-3 (BAM)
01-01-2012,04:00,20.000,R,ugm-3 (Ref.eq),2.00000,R,ugm-3,8.00000,R,ugm-3,11.00000,R,ugm-3,9.000,R,ugm-3 (BAM)
01-01-2012,05:00,19.000,R,ugm-3 (Ref.eq),1.00000,R,ugm-3,4.00000,R,ugm-3,6.00000,R,ugm-3,12.000,R,ugm-3 (BAM)
01-01-2012,06:00,21.000,R,ugm-3 (Ref.eq),1.00000,R,ugm-3,2.00000,R,ugm-3,4.00000,R,ugm-3,9.000,R,ugm-3 (BAM)
01-01-2012,07:00,22.000,R,ugm-3 (Ref.eq),1.00000,R,ugm-3,2.00000,R,ugm-3,4.00000,R,ugm-3,7.000,R,ugm-3 (BAM)
01-01-2012,08:00,23.000,R,ugm-3 (Ref.eq),1.00000,R,ugm-3,2.00000,R,ugm-3,4.00000,R,ugm-3,11.000,R,ugm-3 (BAM)
01-01-2012,09:00,26.000,R,ugm-3 (Ref.eq),1.00000,R,ugm-3,4.00000,R,ugm-3,6.00000,R,ugm-3,11.000,R,ugm-3 (BAM)
01-01-2012,10:00,26.000,R,ugm-3 (Ref.eq),1.00000,R,ugm-3,4.00000,R,ugm-3,6.00000,R,ugm-3,11.000,R,ugm-3 (BAM)
01-01-2012,11:00,24.000,R,ugm-3 (Ref.eq),1.00000,R,ugm-3,4.00000,R,ugm-3,6.00000,R,ugm-3,13.000,R,ugm-3 (BAM)
01-01-2012,12:00,22.000,R,ugm-3 (Ref.eq),2.00000,R,ugm-3,4.00000,R,ugm-3,8.00000,R,ugm-3,13.000,R,ugm-3 (BAM)
01-01-2012,13:00,18.000,R,ugm-3 (Ref.eq),2.00000,R,ugm-3,8.00000,R,ugm-3,11.00000,R,ugm-3,9.000,R,ugm-3 (BAM)
01-01-2012,14:00,18.000,R,ugm-3 (Ref.eq),4.00000,R,ugm-3,10.00000,R,ugm-3,15.00000,R,ugm-3,5.000,R,ugm-3 (BAM)
01-01-2012,15:00,15.000,R,ugm-3 (Ref.eq),4.00000,R,ugm-3,13.00000,R,ugm-3,19.00000,R,ugm-3,7.000,R,ugm-3 (BAM)
01-01-2012,16:00,14.000,R,ugm-3 (Ref.eq),5.00000,R,ugm-3,17.00000,R,ugm-3,25.00000,R,ugm-3,6.000,R,ugm-3 (BAM)
01-01-2012,17:00,17.000,R,ugm-3 (Ref.eq),4.00000,R,ugm-3,15.00000,R,ugm-3,21.00000,R,ugm-3,6.000,R,ugm-3 (BAM)
01-01-2012,18:00,17.000,R,ugm-3 (Ref.eq),2.00000,R,ugm-3,11.00000,R,ugm-3,15.00000,R,ugm-3,8.000,R,ugm-3 (BAM)
01-01-2012,19:00,17.000,R,ugm-3 (Ref.eq),2.00000,R,ugm-3,11.00000,R,ugm-3,15.00000,R,ugm-3,9.000,R,ugm-3 (BAM)
01-01-2012,20:00,18.000,R,ugm-3 (Ref.eq),1.00000,R,ugm-3,10.00000,R,ugm-3,11.00000,R,ugm-3,9.000,R,ugm-3 (BAM)
01-01-2012,21:00,17.000,R,ugm-3 (Ref.eq),1.00000,R,ugm-3,8.00000,R,ugm-3,10.00000,R,ugm-3,14.000,R,ugm-3 (BAM)
01-01-2012,22:00,20.000,R,ugm-3 (Ref.eq),2.00000,R,ugm-3,10.00000,R,ugm-3,13.00000,R,ugm-3,9.000,R,ugm-3 (BAM)
01-01-2012,23:00,15.000,R,ugm-3 (Ref.eq),2.00000,R,ugm-3,10.00000,R,ugm-3,13.00000,R,ugm-3,6.000,R,ugm-3 (BAM)
01-01-2012,24:00,3.000,R,ugm-3 (Ref.eq),1.00000,R,ugm-3,4.00000,R,ugm-3,6.00000,R,ugm-3,5.000,R,ugm-3 (BAM)
02-01-2012,01:00,7.000,R,ugm-3 (Ref.eq),1.00000,R,ugm-3,6.00000,R,ugm-3,8.00000,R,ugm-3,8.000,R,ugm-3 (BAM)
02-01-2012,02:00,10.000,R,ugm-3 (Ref.eq),1.00000,R,ugm-3,2.00000,R,ugm-3,4.00000,R,ugm-3,9.000,R,ugm-3 (BAM)
02-01-2012,03:00,8.000,R,ugm-3 (Ref.eq),1.00000,R,ugm-3,2.00000,R,ugm-3,4.00000,R,ugm-3,5.000,R,ugm-3 (BAM)
02-01-2012,04:00,13.000,R,ugm-3 (Ref.eq),1.00000,R,ugm-3,0.00000,R,ugm-3,2.00000,R,ugm-3,7.000,R,ugm-3 (BAM)
02-01-2012,05:00,10.000,R,ugm-3 (Ref.eq),1.00000,R,ugm-3,0.00000,R,ugm-3,2.00000,R,ugm-3,7.000,R,ugm-3 (BAM)
02-01-2012,06:00,8.000,R,ugm-3 (Ref.eq),1.00000,R,ugm-3,2.00000,R,ugm-3,4.00000,R,ugm-3,5.000,R,ugm-3 (BAM)
02-01-2012,07:00,13.000,R,ugm-3 (Ref.eq),2.00000,R,ugm-3,6.00000,R,ugm-3,10.00000,R,ugm-3,6.000,R,ugm-3 (BAM)
02-01-2012,08:00,15.000,R,ugm-3 (Ref.eq),14.00000,R,ugm-3,42.00000,R,ugm-3,63.00000,R,ugm-3,8.000,R,ugm-3 (BAM)
02-01-2012,09:00,9.000,R,ugm-3 (Ref.eq),2.00000,R,ugm-3,8.00000,R,ugm-3,11.00000,R,ugm-3,9.000,R,ugm-3 (BAM)
02-01-2012,10:00,8.000,R,ugm-3 (Ref.eq),11.00000,R,ugm-3,27.00000,R,ugm-3,44.00000,R,ugm-3,8.000,R,ugm-3 (BAM)
02-01-2012,11:00,18.000,R,ugm-3 (Ref.eq),6.00000,R,ugm-3,17.00000,R,ugm-3,27.00000,R,ugm-3,9.000,R,ugm-3 (BAM)
02-01-2012,12:00,10.000,R,ugm-3 (Ref.eq),6.00000,R,ugm-3,15.00000,R,ugm-3,25.00000,R,ugm-3,7.000,R,ugm-3 (BAM)
02-01-2012,13:00,52.000,R,ugm-3 (Ref.eq),6.00000,R,ugm-3,10.00000,R,ugm-3,19.00000,R,ugm-3,6.000,R,ugm-3 (BAM)
02-01-2012,14:00,13.000,R,ugm-3 (Ref.eq),6.00000,R,ugm-3,13.00000,R,ugm-3,23.00000,R,ugm-3,5.000,R,ugm-3 (BAM)
02-01-2012,15:00,13.000,R,ugm-3 (Ref.eq),4.00000,R,ugm-3,15.00000,R,ugm-3,21.00000,R,ugm-3,7.000,R,ugm-3 (BAM)
02-01-2012,16:00,14.000,R,ugm-3 (Ref.eq),10.00000,R,ugm-3,21.00000,R,ugm-3,36.00000,R,ugm-3,7.000,R,ugm-3 (BAM)
02-01-2012,17:00,4.000,R,ugm-3 (Ref.eq),6.00000,R,ugm-3,21.00000,R,ugm-3,31.00000,R,ugm-3,6.000,R,ugm-3 (BAM)
02-01-2012,18:00,8.000,R,ugm-3 (Ref.eq),10.00000,R,ugm-3,31.00000,R,ugm-3,46.00000,R,ugm-3,9.000,R,ugm-3 (BAM)
02-01-2012,19:00,11.000,R,ugm-3 (Ref.eq),14.00000,R,ugm-3,42.00000,R,ugm-3,63.00000,R,ugm-3,11.000,R,ugm-3 (BAM)
02-01-2012,20:00,15.000,R,ugm-3 (Ref.eq),5.00000,R,ugm-3,21.00000,R,ugm-3,29.00000,R,ugm-3,8.000,R,ugm-3 (BAM)
02-01-2012,21:00,15.000,R,ugm-3 (Ref.eq),2.00000,R,ugm-3,13.00000,R,ugm-3,17.00000,R,ugm-3,8.000,R,ugm-3 (BAM)
02-01-2012,22:00,18.000,R,ugm-3 (Ref.eq),2.00000,R,ugm-3,10.00000,R,ugm-3,13.00000,R,ugm-3,14.000,R,ugm-3 (BAM)
02-01-2012,23:00,18.000,R,ugm-3 (Ref.eq),1.00000,R,ugm-3,6.00000,R,ugm-3,8.00000,R,ugm-3,8.000,R,ugm-3 (BAM)
02-01-2012,24:00,17.000,R,ugm-3 (Ref.eq),1.00000,R,ugm-3,2.00000,R,ugm-3,4.00000,R,ugm-3,9.000,R,ugm-3 (BAM)
03-01-2012,01:00,18.000,R,ugm-3 (Ref.eq),1.00000,R,ugm-3,4.00000,R,ugm-3,6.00000,R,ugm-3,9.000,R,ugm-3 (BAM)
03-01-2012,02:00,16.000,R,ugm-3 (Ref.eq),1.00000,R,ugm-3,2.00000,R,ugm-3,4.00000,R,ugm-3,6.000,R,ugm-3 (BAM)
03-01-2012,03:00,13.000,R,ugm-3 (Ref.eq),1.00000,R,ugm-3,2.00000,R,ugm-3,4.00000,R,ugm-3,4.000,R,ugm-3 (BAM)
03-01-2012,04:00,11.000,R,ugm-3 (Ref.eq),1.00000,R,ugm-3,2.00000,R,ugm-3,4.00000,R,ugm-3,7.000,R,ugm-3 (BAM)
03-01-2012,05:00,29.000,R,ugm-3 (Ref.eq),1.00000,R,ugm-3,4.00000,R,ugm-3,6.00000,R,ugm-3,9.000,R,ugm-3 (BAM)
03-01-2012,06:00,31.000,R,ugm-3 (Ref.eq),1.00000,R,ugm-3,4.00000,R,ugm-3,6.00000,R,ugm-3,10.000,R,ugm-3 (BAM)
03-01-2012,07:00,27.000,R,ugm-3 (Ref.eq),2.00000,R,ugm-3,4.00000,R,ugm-3,8.00000,R,ugm-3,10.000,R,ugm-3 (BAM)
03-01-2012,08:00,19.000,R,ugm-3 (Ref.eq),4.00000,R,ugm-3,8.00000,R,ugm-3,13.00000,R,ugm-3,9.000,R,ugm-3 (BAM)
03-01-2012,09:00,20.000,R,ugm-3 (Ref.eq),5.00000,R,ugm-3,11.00000,R,ugm-3,19.00000,R,ugm-3,10.000,R,ugm-3 (BAM)
03-01-2012,10:00,18.000,R,ugm-3 (Ref.eq),4.00000,R,ugm-3,15.00000,R,ugm-3,21.00000,R,ugm-3,8.000,R,ugm-3 (BAM)
03-01-2012,11:00,16.000,R,ugm-3 (Ref.eq),7.00000,R,ugm-3,19.00000,R,ugm-3,31.00000,R,ugm-3,7.000,R,ugm-3 (BAM)
03-01-2012,12:00,21.000,R,ugm-3 (Ref.eq),7.00000,R,ugm-3,21.00000,R,ugm-3,33.00000,R,ugm-3,10.000,R,ugm-3 (BAM)
03-01-2012,13:00,19.000,R,ugm-3 (Ref.eq),5.00000,R,ugm-3,17.00000,R,ugm-3,25.00000,R,ugm-3,10.000,R,ugm-3 (BAM)
03-01-2012,14:00,17.000,R,ugm-3 (Ref.eq),5.00000,R,ugm-3,15.00000,R,ugm-3,23.00000,R,ugm-3,9.000,R,ugm-3 (BAM)
03-01-2012,15:00,16.000,R,ugm-3 (Ref.eq),5.00000,R,ugm-3,15.00000,R,ugm-3,23.00000,R,ugm-3,8.000,R,ugm-3 (BAM)
03-01-2012,16:00,21.000,R,ugm-3 (Ref.eq),5.00000,R,ugm-3,17.00000,R,ugm-3,25.00000,R,ugm-3,7.000,R,ugm-3 (BAM)
03-01-2012,17:00,23.000,R,ugm-3 (Ref.eq),6.00000,R,ugm-3,23.00000,R,ugm-3,33.00000,R,ugm-3,10.000,R,ugm-3 (BAM)
03-01-2012,18:00,25.000,R,ugm-3 (Ref.eq),6.00000,R,ugm-3,23.00000,R,ugm-3,33.00000,R,ugm-3,12.000,R,ugm-3 (BAM)
03-01-2012,19:00,27.000,R,ugm-3 (Ref.eq),4.00000,R,ugm-3,19.00000,R,ugm-3,25.00000,R,ugm-3,12.000,R,ugm-3 (BAM)
03-01-2012,20:00,27.000,R,ugm-3 (Ref.eq),4.00000,R,ugm-3,13.00000,R,ugm-3,19.00000,R,ugm-3,11.000,R,ugm-3 (BAM)
03-01-2012,21:00,28.000,R,ugm-3 (Ref.eq),1.00000,R,ugm-3,10.00000,R,ugm-3,11.00000,R,ugm-3,9.000,R,ugm-3 (BAM)
03-01-2012,22:00,12.000,R,ugm-3 (Ref.eq),1.00000,R,ugm-3,6.00000,R,ugm-3,8.00000,R,ugm-3,8.000,R,ugm-3 (BAM)
03-01-2012,23:00,15.000,R,ugm-3 (Ref.eq),1.00000,R,ugm-3,6.00000,R,ugm-3,8.00000,R,ugm-3,8.000,R,ugm-3 (BAM)
03-01-2012,24:00,16.000,R,ugm-3 (Ref.eq),1.00000,R,ugm-3,4.00000,R,ugm-3,6.00000,R,ugm-3,9.000,R,ugm-3 (BAM)
04-01-2012,01:00,18.000,R,ugm-3 (Ref.eq),1.00000,R,ugm-3,2.00000,R,ugm-3,4.00000,R,ugm-3,10.000,R,ugm-3 (BAM)
04-01-2012,02:00,22.000,R,ugm-3 (Ref.eq),1.00000,R,ugm-3,2.00000,R,ugm-3,4.00000,R,ugm-3,11.000,R,ugm-3 (BAM)
04-01-2012,03:00,24.000,R,ugm-3 (Ref.eq),1.00000,R,ugm-3,2.00000,R,ugm-3,4.00000,R,ugm-3,10.000,R,ugm-3 (BAM)
04-01-2012,04:00,24.000,R,ugm-3 (Ref.eq),1.00000,R,ugm-3,2.00000,R,ugm-3,4.00000,R,ugm-3,10.000,R,ugm-3 (BAM)
04-01-2012,05:00,22.000,R,ugm-3 (Ref.eq),1.00000,R,ugm-3,4.00000,R,ugm-3,6.00000,R,ugm-3,11.000,R,ugm-3 (BAM)
04-01-2012,06:00,22.000,R,ugm-3 (Ref.eq),1.00000,R,ugm-3,6.00000,R,ugm-3,8.00000,R,ugm-3,10.000,R,ugm-3 (BAM)
04-01-2012,07:00,23.000,R,ugm-3 (Ref.eq),4.00000,R,ugm-3,13.00000,R,ugm-3,19.00000,R,ugm-3,11.000,R,ugm-3 (BAM)
04-01-2012,08:00,26.000,R,ugm-3 (Ref.eq),5.00000,R,ugm-3,21.00000,R,ugm-3,29.00000,R,ugm-3,15.000,R,ugm-3 (BAM)
04-01-2012,09:00,27.000,R,ugm-3 (Ref.eq),6.00000,R,ugm-3,25.00000,R,ugm-3,34.00000,R,ugm-3,17.000,R,ugm-3 (BAM)
04-01-2012,10:00,27.000,R,ugm-3 (Ref.eq),5.00000,R,ugm-3,21.00000,R,ugm-3,29.00000,R,ugm-3,8.000,R,ugm-3 (BAM)
04-01-2012,11:00,21.000,R,ugm-3 (Ref.eq),6.00000,R,ugm-3,23.00000,R,ugm-3,33.00000,R,ugm-3,9.000,R,ugm-3 (BAM)
04-01-2012,12:00,20.000,R,ugm-3 (Ref.eq),11.00000,R,ugm-3,21.00000,R,ugm-3,38.00000,R,ugm-3,9.000,R,ugm-3 (BAM)
04-01-2012,13:00,15.000,R,ugm-3 (Ref.eq),11.00000,R,ugm-3,19.00000,R,ugm-3,36.00000,R,ugm-3,8.000,R,ugm-3 (BAM)
04-01-2012,14:00,15.000,R,ugm-3 (Ref.eq),7.00000,R,ugm-3,13.00000,R,ugm-3,25.00000,R,ugm-3,8.000,R,ugm-3 (BAM)
04-01-2012,15:00,,,,7.00000,R,ugm-3,15.00000,R,ugm-3,27.00000,R,ugm-3,9.000,R,ugm-3 (BAM)
04-01-2012,16:00,8.000,R,ugm-3 (Ref.eq),10.00000,R,ugm-3,19.00000,R,ugm-3,34.00000,R,ugm-3,9.000,R,ugm-3 (BAM)
04-01-2012,17:00,13.000,R,ugm-3 (Ref.eq),6.00000,R,ugm-3,15.00000,R,ugm-3,25.00000,R,ugm-3,8.000,R,ugm-3 (BAM)
04-01-2012,18:00,14.000,R,ugm-3 (Ref.eq),9.00000,R,ugm-3,13.00000,R,ugm-3,27.00000,R,ugm-3,9.000,R,ugm-3 (BAM)
04-01-2012,19:00,17.000,R,ugm-3 (Ref.eq),4.00000,R,ugm-3,10.00000,R,ugm-3,15.00000,R,ugm-3,6.000,R,ugm-3 (BAM)
04-01-2012,20:00,25.000,R,ugm-3 (Ref.eq),4.00000,R,ugm-3,10.00000,R,ugm-3,15.00000,R,ugm-3,8.000,R,ugm-3 (BAM)
04-01-2012,21:00,25.000,R,ugm-3 (Ref.eq),2.00000,R,ugm-3,6.00000,R,ugm-3,10.00000,R,ugm-3,21.000,R,ugm-3 (BAM)
04-01-2012,22:00,27.000,R,ugm-3 (Ref.eq),1.00000,R,ugm-3,4.00000,R,ugm-3,6.00000,R,ugm-3,10.000,R,ugm-3 (BAM)
04-01-2012,23:00,29.000,R,ugm-3 (Ref.eq),1.00000,R,ugm-3,4.00000,R,ugm-3,6.00000,R,ugm-3,9.000,R,ugm-3 (BAM)
04-01-2012,24:00,32.000,R,ugm-3 (Ref.eq),1.00000,R,ugm-3,2.00000,R,ugm-3,4.00000,R,ugm-3,19.000,R,ugm-3 (BAM)
05-01-2012,01:00,28.000,R,ugm-3 (Ref.eq),0.00000,R,ugm-3,2.00000,R,ugm-3,2.00000,R,ugm-3,19.000,R,ugm-3 (BAM)
05-01-2012,02:00,21.000,R,ugm-3 (Ref.eq),0.00000,R,ugm-3,2.00000,R,ugm-3,2.00000,R,ugm-3,12.000,R,ugm-3 (BAM)
05-01-2012,03:00,18.000,R,ugm-3 (Ref.eq),0.00000,R,ugm-3,2.00000,R,ugm-3,2.00000,R,ugm-3,12.000,R,ugm-3 (BAM)
05-01-2012,04:00,18.000,R,ugm-3 (Ref.eq),0.00000,R,ugm-3,2.00000,R,ugm-3,2.00000,R,ugm-3,11.000,R,ugm-3 (BAM)
05-01-2012,05:00,16.000,R,ugm-3 (Ref.eq),0.00000,R,ugm-3,2.00000,R,ugm-3,2.00000,R,ugm-3,10.000,R,ugm-3 (BAM)
05-01-2012,06:00,18.000,R,ugm-3 (Ref.eq),0.00000,R,ugm-3,4.00000,R,ugm-3,4.00000,R,ugm-3,9.000,R,ugm-3 (BAM)
05-01-2012,07:00,14.000,R,ugm-3 (Ref.eq),0.00000,R,ugm-3,8.00000,R,ugm-3,8.00000,R,ugm-3,10.000,R,ugm-3 (BAM)
05-01-2012,08:00,13.000,R,ugm-3 (Ref.eq),2.00000,R,ugm-3,15.00000,R,ugm-3,19.00000,R,ugm-3,9.000,R,ugm-3 (BAM)
05-01-2012,09:00,23.000,R,ugm-3 (Ref.eq),2.00000,R,ugm-3,17.00000,R,ugm-3,21.00000,R,ugm-3,7.000,R,ugm-3 (BAM)
05-01-2012,10:00,33.000,R,ugm-3 (Ref.eq),2.00000,R,ugm-3,15.00000,R,ugm-3,19.00000,R,ugm-3,18.000,R,ugm-3 (BAM)
05-01-2012,11:00,32.000,R,ugm-3 (Ref.eq),2.00000,R,ugm-3,13.00000,R,ugm-3,17.00000,R,ugm-3,19.000,R,ugm-3 (BAM)
05-01-2012,12:00,27.000,R,ugm-3 (Ref.eq),2.00000,R,ugm-3,13.00000,R,ugm-3,17.00000,R,ugm-3,19.000,R,ugm-3 (BAM)
05-01-2012,13:00,29.000,R,ugm-3 (Ref.eq),1.00000,R,ugm-3,13.00000,R,ugm-3,15.00000,R,ugm-3,15.000,R,ugm-3 (BAM)
05-01-2012,14:00,21.000,R,ugm-3 (Ref.eq),2.00000,R,ugm-3,13.00000,R,ugm-3,17.00000,R,ugm-3,14.000,R,ugm-3 (BAM)
05-01-2012,15:00,18.000,R,ugm-3 (Ref.eq),1.00000,R,ugm-3,13.00000,R,ugm-3,15.00000,R,ugm-3,11.000,R,ugm-3 (BAM)
05-01-2012,16:00,21.000,R,ugm-3 (Ref.eq),2.00000,R,ugm-3,17.00000,R,ugm-3,21.00000,R,ugm-3,11.000,R,ugm-3 (BAM)
05-01-2012,17:00,25.000,R,ugm-3 (Ref.eq),5.00000,R,ugm-3,27.00000,R,ugm-3,34.00000,R,ugm-3,13.000,R,ugm-3 (BAM)
05-01-2012,18:00,23.000,R,ugm-3 (Ref.eq),6.00000,R,ugm-3,29.00000,R,ugm-3,38.00000,R,ugm-3,18.000,R,ugm-3 (BAM)
05-01-2012,19:00,25.000,R,ugm-3 (Ref.eq),4.00000,R,ugm-3,29.00000,R,ugm-3,34.00000,R,ugm-3,18.000,R,ugm-3 (BAM)
05-01-2012,20:00,20.000,R,ugm-3 (Ref.eq),1.00000,R,ugm-3,21.00000,R,ugm-3,23.00000,R,ugm-3,10.000,R,ugm-3 (BAM)
05-01-2012,21:00,20.000,R,ugm-3 (Ref.eq),1.00000,R,ugm-3,15.00000,R,ugm-3,17.00000,R,ugm-3,10.000,R,ugm-3 (BAM)
05-01-2012,22:00,17.000,R,ugm-3 (Ref.eq),0.00000,R,ugm-3,13.00000,R,ugm-3,13.00000,R,ugm-3,10.000,R,ugm-3 (BAM)
05-01-2012,23:00,23.000,R,ugm-3 (Ref.eq),0.00000,R,ugm-3,11.00000,R,ugm-3,11.00000,R,ugm-3,12.000,R,ugm-3 (BAM)
05-01-2012,24:00,21.000,R,ugm-3 (Ref.eq),0.00000,R,ugm-3,13.00000,R,ugm-3,13.00000,R,ugm-3,12.000,R,ugm-3 (BAM)
06-01-2012,01:00,18.000,R,ugm-3 (Ref.eq),1.00000,R,ugm-3,8.00000,R,ugm-3,10.00000,R,ugm-3,11.000,R,ugm-3 (BAM)
06-01-2012,02:00,18.000,R,ugm-3 (Ref.eq),1.00000,R,ugm-3,4.00000,R,ugm-3,6.00000,R,ugm-3,12.000,R,ugm-3 (BAM)
06-01-2012,03:00,18.000,R,ugm-3 (Ref.eq),1.00000,R,ugm-3,8.00000,R,ugm-3,10.00000,R,ugm-3,16.000,R,ugm-3 (BAM)
06-01-2012,04:00,24.000,R,ugm-3 (Ref.eq),1.00000,R,ugm-3,4.00000,R,ugm-3,6.00000,R,ugm-3,10.000,R,ugm-3 (BAM)
06-01-2012,05:00,22.000,R,ugm-3 (Ref.eq),1.00000,R,ugm-3,8.00000,R,ugm-3,10.00000,R,ugm-3,10.000,R,ugm-3 (BAM)
06-01-2012,06:00,20.000,R,ugm-3 (Ref.eq),2.00000,R,ugm-3,15.00000,R,ugm-3,19.00000,R,ugm-3,11.000,R,ugm-3 (BAM)
06-01-2012,07:00,14.000,R,ugm-3 (Ref.eq),12.00000,R,ugm-3,31.00000,R,ugm-3,50.00000,R,ugm-3,16.000,R,ugm-3 (BAM)
06-01-2012,08:00,24.000,R,ugm-3 (Ref.eq),26.00000,R,ugm-3,48.00000,R,ugm-3,88.00000,R,ugm-3,17.000,R,ugm-3 (BAM)
06-01-2012,09:00,31.000,R,ugm-3 (Ref.eq),127.00000,R,ugm-3,86.00000,R,ugm-3,281.00000,R,ugm-3,23.000,R,ugm-3 (BAM)
06-01-2012,10:00,23.000,R,ugm-3 (Ref.eq),50.00000,R,ugm-3,63.00000,R,ugm-3,140.00000,R,ugm-3,14.000,R,ugm-3 (BAM)
06-01-2012,11:00,39.000,R,ugm-3 (Ref.eq),36.00000,R,ugm-3,63.00000,R,ugm-3,119.00000,R,ugm-3,14.000,R,ugm-3 (BAM)
06-01-2012,12:00,37.000,R,ugm-3 (Ref.eq),56.00000,R,ugm-3,69.00000,R,ugm-3,155.00000,R,ugm-3,19.000,R,ugm-3 (BAM)
06-01-2012,13:00,36.000,R,ugm-3 (Ref.eq),42.00000,R,ugm-3,63.00000,R,ugm-3,128.00000,R,ugm-3,9.000,R,ugm-3 (BAM)
06-01-2012,14:00,26.000,R,ugm-3 (Ref.eq),27.00000,R,ugm-3,46.00000,R,ugm-3,88.00000,R,ugm-3,8.000,R,ugm-3 (BAM)
06-01-2012,15:00,16.000,R,ugm-3 (Ref.eq),21.00000,R,ugm-3,44.00000,R,ugm-3,77.00000,R,ugm-3,9.000,R,ugm-3 (BAM)
06-01-2012,16:00,20.000,R,ugm-3 (Ref.eq),26.00000,R,ugm-3,42.00000,R,ugm-3,82.00000,R,ugm-3,11.000,R,ugm-3 (BAM)
06-01-2012,17:00,6.000,R,ugm-3 (Ref.eq),14.00000,R,ugm-3,29.00000,R,ugm-3,50.00000,R,ugm-3,9.000,R,ugm-3 (BAM)
06-01-2012,18:00,5.000,R,ugm-3 (Ref.eq),11.00000,R,ugm-3,29.00000,R,ugm-3,46.00000,R,ugm-3,7.000,R,ugm-3 (BAM)
06-01-2012,19:00,8.000,R,ugm-3 (Ref.eq),10.00000,R,ugm-3,25.00000,R,ugm-3,40.00000,R,ugm-3,7.000,R,ugm-3 (BAM)
06-01-2012,20:00,11.000,R,ugm-3 (Ref.eq),4.00000,R,ugm-3,13.00000,R,ugm-3,19.00000,R,ugm-3,7.000,R,ugm-3 (BAM)
06-01-2012,21:00,8.000,R,ugm-3 (Ref.eq),4.00000,R,ugm-3,13.00000,R,ugm-3,19.00000,R,ugm-3,8.000,R,ugm-3 (BAM)
06-01-2012,22:00,7.000,R,ugm-3 (Ref.eq),2.00000,R,ugm-3,8.00000,R,ugm-3,11.00000,R,ugm-3,7.000,R,ugm-3 (BAM)
06-01-2012,23:00,8.000,R,ugm-3 (Ref.eq),1.00000,R,ugm-3,6.00000,R,ugm-3,8.00000,R,ugm-3,6.000,R,ugm-3 (BAM)
06-01-2012,24:00,13.000,R,ugm-3 (Ref.eq),1.00000,R,ugm-3,2.00000,R,ugm-3,4.00000,R,ugm-3,7.000,R,ugm-3 (BAM)
07-01-2012,01:00,12.000,R,ugm-3 (Ref.eq),1.00000,R,ugm-3,2.00000,R,ugm-3,4.00000,R,ugm-3,9.000,R,ugm-3 (BAM)
07-01-2012,02:00,16.000,R,ugm-3 (Ref.eq),1.00000,R,ugm-3,2.00000,R,ugm-3,4.00000,R,ugm-3,8.000,R,ugm-3 (BAM)
07-01-2012,03:00,11.000,R,ugm-3 (Ref.eq),0.00000,R,ugm-3,2.00000,R,ugm-3,2.00000,R,ugm-3,6.000,R,ugm-3 (BAM)
07-01-2012,04:00,16.000,R,ugm-3 (Ref.eq),1.00000,R,ugm-3,2.00000,R,ugm-3,4.00000,R,ugm-3,5.000,R,ugm-3 (BAM)
07-01-2012,05:00,10.000,R,ugm-3 (Ref.eq),1.00000,R,ugm-3,2.00000,R,ugm-3,4.00000,R,ugm-3,8.000,R,ugm-3 (BAM)
07-01-2012,06:00,10.000,R,ugm-3 (Ref.eq),1.00000,R,ugm-3,2.00000,R,ugm-3,4.00000,R,ugm-3,9.000,R,ugm-3 (BAM)
07-01-2012,07:00,15.000,R,ugm-3 (Ref.eq),1.00000,R,ugm-3,4.00000,R,ugm-3,6.00000,R,ugm-3,9.000,R,ugm-3 (BAM)
07-01-2012,08:00,20.000,R,ugm-3 (Ref.eq),2.00000,R,ugm-3,8.00000,R,ugm-3,11.00000,R,ugm-3,10.000,R,ugm-3 (BAM)
07-01-2012,09:00,23.000,R,ugm-3 (Ref.eq),7.00000,R,ugm-3,21.00000,R,ugm-3,33.00000,R,ugm-3,16.000,R,ugm-3 (BAM)
07-01-2012,10:00,21.000,R,ugm-3 (Ref.eq),22.00000,R,ugm-3,36.00000,R,ugm-3,71.00000,R,ugm-3,9.000,R,ugm-3 (BAM)
07-01-2012,11:00,22.000,R,ugm-3 (Ref.eq),19.00000,R,ugm-3,31.00000,R,ugm-3,59.00000,R,ugm-3,15.000,R,ugm-3 (BAM)
07-01-2012,12:00,18.000,R,ugm-3 (Ref.eq),12.00000,R,ugm-3,23.00000,R,ugm-3,42.00000,R,ugm-3,18.000,R,ugm-3 (BAM)
07-01-2012,13:00,22.000,R,ugm-3 (Ref.eq),7.00000,R,ugm-3,21.00000,R,ugm-3,33.00000,R,ugm-3,14.000,R,ugm-3 (BAM)
07-01-2012,14:00,16.000,R,ugm-3 (Ref.eq),4.00000,R,ugm-3,15.00000,R,ugm-3,21.00000,R,ugm-3,12.000,R,ugm-3 (BAM)
07-01-2012,15:00,20.000,R,ugm-3 (Ref.eq),5.00000,R,ugm-3,19.00000,R,ugm-3,27.00000,R,ugm-3,15.000,R,ugm-3 (BAM)
07-01-2012,16:00,18.000,R,ugm-3 (Ref.eq),6.00000,R,ugm-3,25.00000,R,ugm-3,34.00000,R,ugm-3,14.000,R,ugm-3 (BAM)
07-01-2012,17:00,15.000,R,ugm-3 (Ref.eq),9.00000,R,ugm-3,33.00000,R,ugm-3,46.00000,R,ugm-3,14.000,R,ugm-3 (BAM)
07-01-2012,18:00,14.000,R,ugm-3 (Ref.eq),6.00000,R,ugm-3,27.00000,R,ugm-3,36.00000,R,ugm-3,13.000,R,ugm-3 (BAM)
07-01-2012,19:00,16.000,R,ugm-3 (Ref.eq),4.00000,R,ugm-3,23.00000,R,ugm-3,29.00000,R,ugm-3,14.000,R,ugm-3 (BAM)
07-01-2012,20:00,12.000,R,ugm-3 (Ref.eq),4.00000,R,ugm-3,21.00000,R,ugm-3,27.00000,R,ugm-3,12.000,R,ugm-3 (BAM)
07-01-2012,21:00,12.000,R,ugm-3 (Ref.eq),4.00000,R,ugm-3,15.00000,R,ugm-3,21.00000,R,ugm-3,8.000,R,ugm-3 (BAM)
07-01-2012,22:00,14.000,R,ugm-3 (Ref.eq),2.00000,R,ugm-3,15.00000,R,ugm-3,19.00000,R,ugm-3,8.000,R,ugm-3 (BAM)
07-01-2012,23:00,13.000,R,ugm-3 (Ref.eq),2.00000,R,ugm-3,15.00000,R,ugm-3,19.00000,R,ugm-3,8.000,R,ugm-3 (BAM)
07-01-2012,24:00,18.000,R,ugm-3 (Ref.eq),2.00000,R,ugm-3,15.00000,R,ugm-3,19.00000,R,ugm-3,8.000,R,ugm-3 (BAM)
08-01-2012,01:00,15.000,R,ugm-3 (Ref.eq),1.00000,R,ugm-3,11.00000,R,ugm-3,13.00000,R,ugm-3,6.000,R,ugm-3 (BAM)
08-01-2012,02:00,13.000,R,ugm-3 (Ref.eq),1.00000,R,ugm-3,8.00000,R,ugm-3,10.00000,R,ugm-3,9.000,R,ugm-3 (BAM)
08-01-2012,03:00,15.000,R,ugm-3 (Ref.eq),1.00000,R,ugm-3,6.00000,R,ugm-3,8.00000,R,ugm-3,8.000,R,ugm-3 (BAM)
08-01-2012,04:00,14.000,R,ugm-3 (Ref.eq),1.00000,R,ugm-3,8.00000,R,ugm-3,10.00000,R,ugm-3,6.000,R,ugm-3 (BAM)
08-01-2012,05:00,13.000,R,ugm-3 (Ref.eq),1.00000,R,ugm-3,6.00000,R,ugm-3,8.00000,R,ugm-3,10.000,R,ugm-3 (BAM)
08-01-2012,06:00,14.000,R,ugm-3 (Ref.eq),1.00000,R,ugm-3,4.00000,R,ugm-3,6.00000,R,ugm-3,13.000,R,ugm-3 (BAM)
08-01-2012,07:00,15.000,R,ugm-3 (Ref.eq),1.00000,R,ugm-3,10.00000,R,ugm-3,11.00000,R,ugm-3,11.000,R,ugm-3 (BAM)
08-01-2012,08:00,13.000,R,ugm-3 (Ref.eq),1.00000,R,ugm-3,11.00000,R,ugm-3,13.00000,R,ugm-3,8.000,R,ugm-3 (BAM)
08-01-2012,09:00,12.000,R,ugm-3 (Ref.eq),2.00000,R,ugm-3,15.00000,R,ugm-3,19.00000,R,ugm-3,7.000,R,ugm-3 (BAM)
08-01-2012,10:00,15.000,R,ugm-3 (Ref.eq),11.00000,R,ugm-3,27.00000,R,ugm-3,44.00000,R,ugm-3,8.000,R,ugm-3 (BAM)
08-01-2012,11:00,17.000,R,ugm-3 (Ref.eq),36.00000,R,ugm-3,59.00000,R,ugm-3,115.00000,R,ugm-3,13.000,R,ugm-3 (BAM)
08-01-2012,12:00,19.000,R,ugm-3 (Ref.eq),35.00000,R,ugm-3,61.00000,R,ugm-3,115.00000,R,ugm-3,18.000,R,ugm-3 (BAM)
08-01-2012,13:00,22.000,R,ugm-3 (Ref.eq),27.00000,R,ugm-3,50.00000,R,ugm-3,92.00000,R,ugm-3,15.000,R,ugm-3 (BAM)
08-01-2012,14:00,26.000,R,ugm-3 (Ref.eq),22.00000,R,ugm-3,54.00000,R,ugm-3,88.00000,R,ugm-3,15.000,R,ugm-3 (BAM)
08-01-2012,15:00,23.000,R,ugm-3 (Ref.eq),47.00000,R,ugm-3,73.00000,R,ugm-3,145.00000,R,ugm-3,20.000,R,ugm-3 (BAM)
08-01-2012,16:00,25.000,R,ugm-3 (Ref.eq),32.00000,R,ugm-3,69.00000,R,ugm-3,119.00000,R,ugm-3,16.000,R,ugm-3 (BAM)
08-01-2012,17:00,27.000,R,ugm-3 (Ref.eq),41.00000,R,ugm-3,65.00000,R,ugm-3,128.00000,R,ugm-3,18.000,R,ugm-3 (BAM)
08-01-2012,18:00,19.000,R,ugm-3 (Ref.eq),27.00000,R,ugm-3,52.00000,R,ugm-3,94.00000,R,ugm-3,24.000,R,ugm-3 (BAM)
08-01-2012,19:00,13.000,R,ugm-3 (Ref.eq),20.00000,R,ugm-3,46.00000,R,ugm-3,77.00000,R,ugm-3,13.000,R,ugm-3 (BAM)
08-01-2012,20:00,12.000,R,ugm-3 (Ref.eq),11.00000,R,ugm-3,23.00000,R,ugm-3,40.00000,R,ugm-3,12.000,R,ugm-3 (BAM)
08-01-2012,21:00,10.000,R,ugm-3 (Ref.eq),11.00000,R,ugm-3,33.00000,R,ugm-3,50.00000,R,ugm-3,12.000,R,ugm-3 (BAM)
08-01-2012,22:00,19.000,R,ugm-3 (Ref.eq),41.00000,R,ugm-3,59.00000,R,ugm-3,122.00000,R,ugm-3,15.000,R,ugm-3 (BAM)
08-01-2012,23:00,9.000,R,ugm-3 (Ref.eq),55.00000,R,ugm-3,63.00000,R,ugm-3,147.00000,R,ugm-3,15.000,R,ugm-3 (BAM)
08-01-2012,24:00,8.000,R,ugm-3 (Ref.eq),27.00000,R,ugm-3,50.00000,R,ugm-3,92.00000,R,ugm-3,10.000,R,ugm-3 (BAM)
09-01-2012,01:00,8.000,R,ugm-3 (Ref.eq),1.00000,R,ugm-3,13.00000,R,ugm-3,15.00000,R,ugm-3,7.000,R,ugm-3 (BAM)
09-01-2012,02:00,8.000,R,ugm-3 (Ref.eq),1.00000,R,ugm-3,2.00000,R,ugm-3,4.00000,R,ugm-3,4.000,R,ugm-3 (BAM)
09-01-2012,03:00,9.000,R,ugm-3 (Ref.eq),4.00000,R,ugm-3,13.00000,R,ugm-3,19.00000,R,ugm-3,4.000,R,ugm-3 (BAM)
09-01-2012,04:00,8.000,R,ugm-3 (Ref.eq),1.00000,R,ugm-3,6.00000,R,ugm-3,8.00000,R,ugm-3,6.000,R,ugm-3 (BAM)
09-01-2012,05:00,6.000,R,ugm-3 (Ref.eq),1.00000,R,ugm-3,2.00000,R,ugm-3,4.00000,R,ugm-3,9.000,R,ugm-3 (BAM)
09-01-2012,06:00,9.000,R,ugm-3 (Ref.eq),1.00000,R,ugm-3,6.00000,R,ugm-3,8.00000,R,ugm-3,11.000,R,ugm-3 (BAM)
09-01-2012,07:00,11.000,R,ugm-3 (Ref.eq),5.00000,R,ugm-3,11.00000,R,ugm-3,19.00000,R,ugm-3,8.000,R,ugm-3 (BAM)
09-01-2012,08:00,14.000,R,ugm-3 (Ref.eq),10.00000,R,ugm-3,19.00000,R,ugm-3,34.00000,R,ugm-3,6.000,R,ugm-3 (BAM)
09-01-2012,09:00,13.000,R,ugm-3 (Ref.eq),21.00000,R,ugm-3,36.00000,R,ugm-3,69.00000,R,ugm-3,9.000,R,ugm-3 (BAM)
09-01-2012,10:00,16.000,R,ugm-3 (Ref.eq),14.00000,R,ugm-3,29.00000,R,ugm-3,50.00000,R,ugm-3,11.000,R,ugm-3 (BAM)
09-01-2012,11:00,18.000,R,ugm-3 (Ref.eq),9.00000,R,ugm-3,19.00000,R,ugm-3,33.00000,R,ugm-3,12.000,R,ugm-3 (BAM)
09-01-2012,12:00,17.000,R,ugm-3 (Ref.eq),11.00000,R,ugm-3,19.00000,R,ugm-3,36.00000,R,ugm-3,11.000,R,ugm-3 (BAM)
09-01-2012,13:00,21.000,R,ugm-3 (Ref.eq),15.00000,R,ugm-3,27.00000,R,ugm-3,50.00000,R,ugm-3,9.000,R,ugm-3 (BAM)
09-01-2012,14:00,8.000,R,ugm-3 (Ref.eq),11.00000,R,ugm-3,23.00000,R,ugm-3,40.00000,R,ugm-3,10.000,R,ugm-3 (BAM)
09-01-2012,15:00,9.000,R,ugm-3 (Ref.eq),10.00000,R,ugm-3,25.00000,R,ugm-3,40.00000,R,ugm-3,9.000,R,ugm-3 (BAM)
09-01-2012,16:00,10.000,R,ugm-3 (Ref.eq),11.00000,R,ugm-3,31.00000,R,ugm-3,48.00000,R,ugm-3,8.000,R,ugm-3 (BAM)
09-01-2012,17:00,8.000,R,ugm-3 (Ref.eq),12.00000,R,ugm-3,38.00000,R,ugm-3,57.00000,R,ugm-3,6.000,R,ugm-3 (BAM)
09-01-2012,18:00,8.000,R,ugm-3 (Ref.eq),17.00000,R,ugm-3,52.00000,R,ugm-3,78.00000,R,ugm-3,9.000,R,ugm-3 (BAM)
09-01-2012,19:00,8.000,R,ugm-3 (Ref.eq),17.00000,R,ugm-3,48.00000,R,ugm-3,75.00000,R,ugm-3,8.000,R,ugm-3 (BAM)
09-01-2012,20:00,7.000,R,ugm-3 (Ref.eq),12.00000,R,ugm-3,42.00000,R,ugm-3,61.00000,R,ugm-3,6.000,R,ugm-3 (BAM)